sat.trackr.live / text

‹ back to catalog

STARLINK-6056

NORAD 56813 · 2023-078AY

PAYLOAD ACTIVE UNKNOWN

§ Identity

Operator
Country
US
Launch date
2023-05-31
Launch site
AFWTR
Launch vehicle
Mass (kg)
RCS (m²)

Purposes: comms

External: N2YO · Heavens-Above · Gunter

§ Orbital elements

Epoch: 2026-09-20T05:19:36.648480Z

Period
96.11 min
Inclination
69.9999°
Eccentricity
0.0003245
Mean motion
14.98332853 rev/d
Perigee alt
569.8 km
Apogee alt
574.3 km
Semi-major
6,950.2 km
B*
-4.8952e-5
RAAN
213.7930°
Arg perigee
268.4623°
Mean anomaly
91.6164°
Rev number
18,182

§ Raw data

STARLINK-60561 56813U 23078AY  26263.22195195 -.00000677  00000+0 -48952-4 0  99992 56813  69.9999 213.7930 0003245 268.4623  91.6164 14.98332853181829

JSON: /api/v1/satellites/56813 · /tle

For live sub-satellite position, see the globe view (requires WebGL).

§ Visibility from observer

Set your observer location to see the next 7 days of passes ≥ 10°. The values pass through the URL so the page stays shareable.

No JS? Fill the form by hand. The geolocation button needs JavaScript.